Temperature
19 17 17 18 18 19 19 18 18 18 18 18 17 17 17 17 17 17 17 17 17 18 18 18 18 18 18 18 18 17 17 17 17 17 17 17 16 16 16 16 16 16 16 16
17 18 19 19 19 19 18 18 18 18 18 18 17 17 17 17 17 17 17 17 17 18 18 18 18 18 18 18 18 17 17 17 17 17 17 17 16 16 16 16 16 16 16 15
19 19 20 19 19 19 19 18 18 18 18 17 17 17 17 17 17 17 17 17 17 18 18 18 18 18 18 17 17 17 17 17 17 17 17 16 16 16 16 16 16 16 15 15
19 19 20 19 19 19 18 19 19 18 17 16 17 16 16 16 16 16 17 17 17 17 18 18 18 18 18 17 17 17 17 17 17 17 16 16 16 16 16 16 16 15 15 15
19 19 20 19 20 19 18 18 18 18 17 16 16 16 15 16 16 16 16 17 17 18 18 18 18 18 18 17 17 17 17 17 17 16 16 16 16 16 16 15 15 15 15 15
19 20 20 20 19 19 18 18 17 15 15 16 16 16 16 15 16 16 16 17 17 18 18 18 18 18 17 17 17 17 17 17 17 16 16 16 16 16 15 15 15 15 15 15
19 19 20 20 19 19 18 16 16 16 15 16 16 16 16 16 16 16 16 17 17 18 18 18 18 17 17 17 17 17 17 17 17 16 16 16 16 15 15 15 15 15 15 15
18 18 19 19 19 18 17 17 16 16 16 15 16 16 16 17 17 17 17 18 18 17 18 18 18 18 17 17 17 17 17 17 16 16 16 16 16 15 15 15 15 15 15 15
17 18 19 19 19 18 17 16 16 15 16 15 15 16 16 17 16 16 17 17 17 18 18 17 17 17 17 17 17 17 17 16 16 16 16 16 15 15 15 15 15 15 15 14
18 18 19 18 19 18 17 15 14 15 16 16 16 16 16 16 16 15 15 16 17 17 17 17 17 17 17 17 17 17 17 16 16 16 16 15 15 15 15 15 15 14 14 14
17 17 18 18 18 18 17 16 14 14 14 15 15 16 16 16 16 15 16 17 17 17 18 17 17 17 17 17 17 16 16 16 16 16 16 15 15 15 15 14 14 14 14 14
16 15 16 17 17 17 17 16 15 15 15 14 14 15 17 16 16 16 16 17 18 18 18 17 17 17 17 17 16 16 16 16 16 16 15 15 15 15 14 14 14 14 14 14
16 15 16 16 17 17 17 16 15 14 13 13 14 15 16 15 16 16 16 17 17 17 17 17 17 17 17 16 16 16 16 16 16 15 15 15 15 14 14 14 14 14 14 14
16 15 15 17 16 16 17 17 15 15 14 13 14 15 16 15 15 15 16 17 17 17 17 17 16 16 16 16 16 16 16 15 15 15 15 15 14 14 14 14 14 14 13 13
15 15 16 16 16 16 17 17 16 15 14 14 15 15 15 15 15 15 16 16 16 16 16 16 16 16 16 16 16 16 15 15 15 15 15 14 14 14 14 14 14 14 13 13
14 15 16 16 16 16 16 16 16 16 15 15 15 15 15 15 15 15 16 16 16 16 16 16 16 16 16 16 16 15 15 15 15 15 14 14 14 14 14 14 13 13 13 13
13 14 15 14 15 16 15 16 16 16 15 15 15 15 15 14 14 15 16 16 16 16 16 16 16 16 16 16 16 15 15 15 15 14 14 14 14 14 13 13 13 13 13 13
13 13 12 13 15 16 15 16 16 16 15 15 15 14 14 15 15 16 16 16 16 16 16 16 16 16 16 16 15 15 15 14 14 14 14 13 13 13 13 13 13 13 12 12
12 13 12 12 14 14 15 16 15 15 16 15 14 14 15 15 15 15 16 16 16 16 16 16 16 16 16 15 15 15 14 14 14 14 14 13 13 13 13 13 13 12 12 12
11 12 12 12 14 14 15 16 16 16 15 15 15 14 14 14 13 14 16 16 16 16 16 16 16 15 15 15 14 14 14 14 14 13 13 13 13 13 12 12 12 12 12 12
12 11 11 11 13 13 14 15 16 15 15 15 15 15 14 14 14 16 16 16 16 16 16 15 15 15 15 14 14 14 14 14 13 13 13 13 12 12 12 12 12 12 11 11
12 11 11 10 12 13 14 14 14 14 16 16 16 16 15 15 15 15 16 16 16 16 15 15 15 15 14 14 14 14 14 13 13 13 13 12 12 12 12 12 11 11 11 11
11 11 11 11 12 14 14 14 15 15 15 15 15 16 15 15 15 15 15 15 15 15 15 15 14 14 14 14 13 13 13 13 13 12 12 12 12 12 11 11 11 11 11 11
10 11 10 10 11 13 14 15 15 15 15 15 15 15 15 15 15 14 14 15 15 15 14 14 14 14 13 13 13 13 13 12 12 12 12 12 12 11 11 11 11 11 11 10
10 10 10 10 11 13 14 14 15 15 15 15 15 15 15 14 14 14 14 14 14 14 14 13 13 13 13 13 13 12 12 12 12 12 12 11 11 11 11 11 10 10 10 10
9 10 10 11 12 12 13 14 14 14 14 14 14 14 14 14 13 14 14 13 13 13 13 13 13 12 12 12 12 12 12 12 12 11 11 11 11 11 10 10 10 10 10 9
Wind_Speed
4 5 1 4 5 4 4 3 1 1 1 2 1 1 2 1 1 2 2 3 3 3 2 0 1 1 2 2 2 3 3 3 3 2 2 2 1 1 2 2 2 3 4 5
5 1 3 2 3 4 5 4 1 1 2 2 1 2 2 2 3 4 4 5 4 2 0 0 1 2 2 2 2 2 3 3 3 2 2 2 2 2 1 2 3 3 4 4
3 3 1 4 3 4 2 4 4 3 2 4 2 4 3 3 1 1 2 4 4 5 4 3 2 2 2 2 3 3 3 3 3 3 3 3 3 3 2 2 2 1 3 4
0 1 3 3 1 3 2 3 4 4 3 1 1 2 5 3 3 3 3 4 5 4 4 4 3 3 3 3 3 3 4 4 3 4 4 5 3 2 1 0 0 1 3 4
1 0 2 1 2 4 2 2 4 3 3 1 1 1 6 2 4 6 6 5 5 5 5 5 5 4 3 2 2 3 4 3 3 4 4 5 3 2 1 1 2 2 2 3
1 1 1 2 1 3 4 6 5 5 4 1 3 3 5 4 6 5 5 5 5 5 5 4 3 3 2 2 2 3 4 3 3 4 4 5 5 4 3 2 2 1 1 1
5 4 2 2 3 4 5 5 3 4 3 4 2 3 7 6 5 5 5 5 4 5 5 5 4 4 3 3 3 3 4 3 3 4 4 4 5 5 5 3 3 2 1 1
1 4 3 0 3 3 3 6 5 3 3 4 2 4 6 4 3 3 3 3 3 4 4 5 6 6 5 5 4 4 4 4 3 3 3 3 4 3 3 3 3 3 3 2
3 4 3 0 1 6 5 3 4 5 1 1 4 5 6 3 3 1 1 2 3 4 5 5 5 5 5 5 5 6 6 4 4 4 3 3 3 3 3 3 3 2 2 2
5 2 3 2 4 4 4 7 5 4 2 2 5 4 4 4 3 2 1 2 3 3 3 4 4 5 5 5 4 4 5 5 4 4 4 3 3 3 3 3 3 3 2 2
3 3 3 2 1 2 3 3 4 4 4 3 3 6 4 5 5 4 5 4 4 4 4 4 4 4 4 4 4 4 4 3 3 3 3 3 3 3 3 3 3 3 2 3
3 4 1 4 3 2 4 5 6 4 3 4 3 6 4 4 4 4 4 4 3 3 4 3 3 3 3 4 4 4 4 4 3 3 3 3 3 2 2 2 2 2 3 3
4 5 2 5 4 2 1 3 4 4 4 4 4 6 3 3 2 2 3 3 2 2 2 2 3 3 4 4 4 4 4 4 3 3 3 3 3 2 2 2 2 3 3 3
5 4 5 6 6 4 3 3 5 5 4 4 7 8 7 5 3 3 2 2 1 1 2 3 3 3 4 4 4 4 4 3 3 4 4 3 3 3 3 3 2 3 3 3
4 3 3 5 4 3 4 5 5 7 7 7 7 7 8 6 5 4 3 1 1 0 1 2 3 3 4 4 4 4 4 3 4 4 4 3 3 2 2 2 2 2 3 3
3 3 1 2 2 3 4 6 6 6 5 6 5 7 6 4 1 1 2 2 2 2 2 2 2 3 4 4 4 4 4 4 4 4 4 3 2 2 2 2 2 2 2 2
2 4 2 3 4 3 4 5 5 4 4 5 6 7 4 2 2 3 4 4 4 4 3 3 3 4 4 4 5 5 4 4 4 4 3 2 3 2 2 2 3 3 3 3
6 4 3 1 2 4 6 3 4 4 4 5 5 5 4 4 3 2 3 4 5 4 4 4 3 3 3 2 3 3 3 4 4 3 3 3 3 3 2 2 3 3 3 3
4 6 4 3 2 6 7 3 3 4 4 3 4 4 2 1 3 3 3 4 5 5 4 4 4 3 3 3 3 4 3 3 3 3 3 3 4 4 3 3 3 3 3 3
4 4 5 4 3 6 6 3 1 3 4 3 3 3 1 3 1 5 3 3 3 3 2 2 2 2 2 3 4 4 3 3 4 4 4 3 3 4 4 4 3 3 3 4
2 3 3 4 5 7 6 4 3 3 6 3 3 3 3 4 5 4 2 2 3 3 2 2 3 3 4 3 5 4 3 5 6 4 3 3 3 4 4 3 3 3 3 3
5 4 4 4 4 7 3 3 4 6 3 2 2 2 3 4 4 3 3 3 2 2 2 3 3 3 3 4 5 4 5 6 4 3 3 3 3 3 3 3 2 2 3 3
5 7 6 7 7 4 2 3 3 2 2 3 2 2 3 3 4 4 4 3 3 3 2 2 3 3 2 3 5 6 6 4 4 4 4 4 3 3 3 3 3 3 3 4
3 2 3 3 6 5 4 3 3 2 3 3 3 3 3 4 5 5 4 4 3 3 3 3 3 3 3 3 4 6 4 4 4 4 4 3 3 3 3 3 4 4 4 4
4 2 2 4 6 5 4 4 4 3 3 3 3 3 3 4 5 5 5 5 4 4 3 3 4 5 5 4 4 4 5 5 5 5 4 4 4 4 3 3 3 4 5 5
4 5 5 7 7 5 7 6 5 4 4 4 4 5 4 4 5 6 5 5 4 4 3 3 4 5 4 4 4 4 4 5 6 5 4 4 3 3 3 3 2 3 4 5
Wind_Direction
45 74 161 210 194 170 142 133 129 275 327 84 115 218 266 244 153 183 192 193 202 221 260 345 128 142 141 136 135 140 128 123 117 111 113 106 91 64 49 48 79 103 111 114
49 357 244 172 133 122 129 130 137 20 33 85 56 308 288 229 210 206 202 206 211 221 232 125 102 124 157 163 159 157 147 139 142 139 130 121 115 92 72 41 58 92 116 125
145 248 145 115 111 109 129 173 179 171 44 40 46 337 306 278 265 246 223 213 209 200 205 201 174 160 161 178 181 176 164 150 148 129 106 90 69 55 45 34 31 51 117 121
190 287 120 111 141 148 220 218 165 144 108 320 69 297 289 270 278 255 241 227 221 213 203 196 188 182 190 200 178 164 159 152 149 137 134 134 131 136 180 172 105 59 91 108
310 118 123 155 222 167 181 102 109 117 131 57 29 168 288 296 263 256 242 229 221 208 197 193 194 194 194 181 162 154 147 146 145 143 147 139 132 141 121 95 84 72 56 76
265 252 180 179 68 117 117 74 60 52 71 337 246 180 277 244 236 245 241 230 218 204 194 190 185 166 162 149 149 145 141 139 140 144 144 150 152 146 131 128 124 90 54 46
355 351 357 107 79 48 83 88 33 1 6 266 236 203 254 258 242 219 223 225 212 197 187 182 177 173 172 166 163 149 147 151 149 149 157 166 164 158 163 170 164 152 131 123
53 309 302 28 152 162 148 135 154 201 237 284 290 240 258 276 275 221 196 190 178 181 185 193 193 187 184 181 172 163 158 166 164 165 171 164 160 161 170 173 167 171 179 184
173 261 305 357 112 133 137 151 158 135 163 288 285 289 304 355 16 37 111 130 184 197 196 200 198 191 188 185 183 180 170 175 177 176 166 157 157 161 169 169 171 180 183 166
156 232 308 315 65 46 131 144 105 117 152 276 297 284 267 290 293 296 264 231 226 209 201 202 198 198 192 184 177 170 169 177 180 175 172 165 170 171 163 158 173 180 179 158
130 145 320 24 148 199 107 104 108 118 151 164 276 280 233 229 228 224 235 236 221 210 207 205 202 199 179 158 153 159 162 162 167 171 164 156 167 165 159 165 181 179 171 159
111 118 255 267 264 197 165 164 147 157 216 176 193 269 278 254 245 225 237 248 239 223 208 198 189 171 163 160 158 167 167 166 172 162 151 151 149 150 156 173 186 165 156 158
129 109 47 347 344 7 143 158 152 134 126 164 188 262 310 357 329 271 251 253 246 230 198 176 173 177 182 178 172 175 171 172 161 142 140 142 147 154 172 183 178 164 161 156
115 118 169 204 228 219 237 205 169 149 173 210 224 252 297 320 304 286 263 242 218 206 198 188 192 198 195 184 181 179 180 172 161 147 148 156 175 183 188 180 170 170 165 161
102 153 216 240 244 219 232 234 199 199 201 206 237 240 264 270 256 249 237 208 149 163 212 209 201 198 195 187 187 185 184 174 167 160 166 187 189 184 182 175 173 164 164 174
85 145 146 302 291 242 255 254 228 219 212 222 245 263 265 277 263 233 223 195 196 219 225 223 209 199 201 201 198 191 191 184 167 173 193 188 165 167 180 187 172 160 168 171
123 137 134 268 311 6 281 249 212 208 207 192 221 244 267 284 250 227 222 207 209 220 217 207 211 212 215 209 194 194 197 179 172 180 188 186 174 175 195 194 169 180 188 179
146 132 141 202 28 245 243 258 188 193 234 220 230 252 251 240 254 250 210 199 219 222 213 215 215 213 208 187 181 173 160 168 175 182 189 190 186 195 198 189 196 199 196 193
150 141 133 140 225 277 291 262 175 183 259 237 226 266 287 59 23 323 240 209 218 222 218 211 205 202 180 173 164 140 147 160 164 184 199 200 193 196 195 202 216 214 199 210
73 103 126 140 187 242 257 285 214 128 275 275 207 225 203 100 6 277 274 229 236 238 223 205 183 159 166 181 152 145 171 175 200 211 212 200 189 193 203 213 218 220 203 217
83 86 141 171 216 259 267 294 100 153 251 269 212 217 180 197 227 256 278 245 227 224 219 187 165 175 195 177 156 169 195 213 219 211 201 202 202 208 213 212 211 213 212 212
181 170 184 161 199 253 278 125 168 223 261 253 230 225 204 229 259 278 278 261 238 222 211 187 181 205 199 172 168 190 222 227 209 189 194 210 214 219 215 200 213 212 203 211
200 193 190 191 212 245 255 216 249 230 251 266 249 250 224 247 268 274 277 269 256 235 223 203 196 213 214 191 185 206 235 214 185 189 208 219 217 219 208 200 206 215 211 214
266 172 165 241 266 271 278 284 295 266 257 270 258 254 234 252 270 276 277 270 262 253 232 211 193 214 233 221 212 221 229 196 181 197 215 216 210 221 219 217 212 209 216 220
235 177 192 250 275 302 297 279 283 301 312 310 307 283 260 254 271 270 271 265 255 255 246 214 211 220 231 228 228 228 213 189 190 201 210 213 212 211 217 222 223 218 222 217
205 191 197 237 241 233 264 276 283 291 297 296 296 302 297 265 263 266 261 260 255 248 238 228 228 227 233 230 238 238 213 190 188 202 210 211 212 213 211 219 253 251 237 242
Height
1517 1523 1527 1525 1525 1526 1529 1533 1537 1535 1530 1532 1535 1536 1533 1532 1533 1533 1534 1534 1534 1535 1537 1538 1539 1540 1541 1542 1543 1544 1545 1546 1547 1548 1548 1549 1549 1550 1551 1551 1552 1552 1553 1553
1523 1526 1522 1521 1522 1525 1529 1534 1537 1534 1531 1533 1536 1536 1533 1532 1532 1532 1533 1533 1534 1535 1536 1537 1538 1539 1540 1541 1543 1544 1545 1546 1547 1548 1549 1549 1550 1550 1551 1551 1551 1552 1552 1553
1524 1523 1519 1521 1525 1528 1530 1533 1535 1536 1534 1535 1537 1540 1535 1532 1532 1532 1532 1532 1533 1534 1535 1536 1537 1538 1540 1541 1542 1543 1545 1546 1547 1548 1549 1549 1549 1550 1550 1551 1551 1552 1552 1553
1522 1520 1521 1523 1526 1527 1533 1528 1530 1533 1540 1546 1543 1553 1540 1534 1532 1531 1531 1531 1531 1533 1534 1536 1537 1538 1539 1540 1541 1543 1544 1546 1547 1548 1548 1549 1549 1549 1550 1550 1551 1551 1552 1552
1523 1521 1522 1525 1524 1524 1528 1526 1530 1534 1540 1547 1546 1552 1545 1535 1534 1530 1529 1529 1530 1531 1532 1534 1536 1537 1538 1539 1541 1542 1544 1545 1546 1547 1547 1548 1548 1549 1549 1550 1550 1551 1551 1552
1521 1520 1520 1521 1522 1523 1525 1530 1534 1540 1545 1554 1547 1552 1548 1537 1531 1528 1526 1527 1527 1529 1531 1533 1535 1536 1537 1539 1540 1541 1543 1544 1545 1546 1546 1547 1547 1548 1548 1549 1549 1550 1551 1551
1526 1522 1520 1520 1524 1526 1528 1540 1554 1555 1560 1557 1545 1548 1543 1528 1525 1524 1524 1525 1526 1528 1530 1531 1533 1534 1536 1537 1539 1540 1542 1543 1544 1545 1545 1546 1546 1547 1547 1548 1548 1549 1549 1550
1535 1535 1523 1521 1524 1529 1531 1537 1554 1561 1562 1557 1546 1547 1535 1524 1521 1521 1522 1523 1524 1526 1528 1530 1531 1533 1534 1536 1538 1539 1540 1542 1543 1543 1544 1545 1545 1546 1546 1547 1547 1548 1549 1549
1535 1534 1522 1521 1521 1524 1533 1538 1539 1551 1553 1558 1551 1541 1529 1522 1521 1521 1521 1522 1523 1524 1526 1528 1530 1531 1533 1534 1536 1538 1539 1540 1541 1542 1543 1543 1544 1544 1545 1546 1546 1547 1548 1548
1526 1533 1525 1522 1522 1525 1528 1534 1544 1551 1558 1561 1552 1545 1539 1527 1523 1522 1521 1521 1522 1524 1525 1526 1528 1530 1531 1533 1535 1536 1537 1539 1540 1540 1541 1542 1543 1543 1544 1544 1545 1546 1546 1547
1523 1532 1531 1527 1528 1530 1532 1536 1542 1550 1552 1560 1560 1548 1526 1523 1521 1521 1520 1520 1521 1522 1524 1525 1526 1528 1530 1531 1533 1534 1536 1537 1538 1539 1540 1540 1541 1542 1542 1543 1543 1544 1545 1545
1525 1533 1538 1531 1525 1524 1527 1532 1539 1548 1551 1554 1557 1548 1519 1519 1518 1519 1519 1519 1520 1521 1522 1524 1525 1526 1527 1529 1531 1532 1534 1535 1536 1537 1538 1539 1539 1540 1541 1541 1542 1542 1543 1544
1525 1533 1543 1541 1537 1529 1529 1530 1534 1540 1549 1555 1556 1543 1519 1518 1518 1518 1518 1518 1519 1520 1521 1522 1523 1524 1525 1527 1529 1530 1532 1533 1534 1535 1536 1537 1538 1538 1539 1540 1540 1541 1541 1542
1522 1532 1539 1542 1537 1531 1530 1529 1532 1538 1547 1550 1545 1534 1522 1520 1519 1517 1517 1517 1518 1519 1520 1520 1521 1522 1524 1525 1527 1528 1530 1531 1532 1533 1534 1535 1535 1536 1537 1538 1538 1539 1539 1540
1522 1531 1531 1530 1527 1527 1527 1527 1529 1532 1535 1539 1533 1529 1523 1519 1518 1516 1516 1516 1517 1517 1518 1519 1519 1520 1522 1523 1525 1526 1528 1529 1530 1531 1532 1532 1533 1534 1534 1535 1535 1536 1537 1537
1524 1529 1529 1530 1526 1526 1526 1524 1524 1526 1527 1529 1527 1525 1517 1516 1515 1515 1515 1515 1515 1516 1516 1517 1518 1519 1520 1521 1523 1524 1526 1527 1528 1529 1530 1530 1531 1531 1532 1532 1533 1533 1534 1535
1527 1529 1534 1536 1530 1527 1531 1522 1521 1522 1521 1522 1525 1521 1515 1515 1514 1513 1513 1514 1514 1514 1515 1515 1516 1517 1518 1519 1520 1522 1523 1525 1526 1527 1527 1528 1528 1529 1529 1530 1530 1531 1531 1532
1526 1530 1536 1538 1533 1537 1526 1515 1515 1517 1517 1517 1516 1515 1513 1513 1512 1512 1512 1512 1512 1513 1513 1514 1514 1515 1516 1517 1518 1519 1521 1522 1523 1524 1525 1525 1526 1526 1527 1527 1527 1528 1529 1529
1520 1527 1536 1541 1539 1534 1522 1514 1514 1516 1516 1513 1513 1512 1512 1511 1511 1511 1511 1511 1511 1511 1512 1512 1513 1513 1514 1514 1516 1517 1518 1519 1520 1521 1521 1522 1522 1523 1523 1524 1524 1524 1525 1526
1522 1524 1534 1540 1538 1538 1522 1512 1510 1514 1518 1511 1510 1510 1510 1511 1514 1511 1509 1509 1509 1509 1510 1511 1511 1511 1512 1512 1513 1514 1515 1516 1516 1517 1518 1519 1519 1519 1520 1520 1520 1521 1521 1522
1528 1531 1535 1538 1538 1529 1515 1511 1511 1523 1519 1510 1509 1508 1509 1509 1510 1508 1507 1507 1507 1507 1507 1508 1508 1509 1509 1510 1511 1511 1512 1512 1514 1514 1515 1515 1515 1516 1516 1517 1517 1517 1517 1518
1527 1531 1534 1537 1537 1530 1511 1511 1514 1514 1508 1507 1507 1507 1507 1506 1506 1505 1505 1504 1504 1504 1504 1505 1505 1505 1506 1507 1507 1507 1508 1509 1510 1511 1511 1511 1512 1512 1512 1513 1513 1513 1513 1513
1522 1522 1523 1524 1522 1512 1510 1509 1509 1508 1507 1506 1505 1505 1505 1504 1504 1503 1502 1502 1502 1501 1501 1501 1501 1502 1502 1503 1504 1504 1504 1505 1506 1506 1506 1507 1507 1508 1508 1508 1508 1508 1508 1508
1517 1516 1517 1518 1512 1509 1508 1507 1507 1506 1506 1505 1504 1503 1503 1502 1501 1501 1500 1499 1499 1498 1498 1498 1498 1498 1498 1499 1500 1500 1501 1501 1501 1502 1502 1502 1503 1503 1503 1504 1503 1503 1503 1503
1514 1514 1515 1514 1510 1507 1505 1505 1505 1504 1503 1502 1501 1500 1500 1499 1498 1497 1496 1496 1495 1495 1494 1494 1494 1494 1494 1495 1495 1495 1496 1496 1497 1497 1497 1497 1498 1498 1498 1498 1498 1498 1498 1498
1510 1510 1512 1510 1505 1505 1503 1502 1502 1501 1500 1499 1498 1496 1496 1495 1494 1493 1492 1491 1491 1490 1490 1489 1489 1489 1490 1490 1490 1491 1491 1492 1492 1492 1492 1492 1493 1493 1493 1493 1493 1493 1494 1494